VA6NA Weather Reports


time (UTC)temp
C
wind
direction
speed
KPH
gust
KPH
rain 1hr
cm
rain 24hr
cm
rain mn
cm
humidity
%
barometer
mb
20260503034025 17 0.0 0.0 0.00 0.00 0.00 38 1012.2
20260503033020 17 0.0 0.0 0.00 0.00 0.00 38 1012.2
20260503032016 18 0.0 0.0 0.00 0.00 0.00 37 1012.3
20260503031103 18 0.0 0.0 0.00 0.00 0.00 37 1012.2
20260503030023 18 0.0 0.0 0.00 0.00 0.00 36 1012.3
20260503025025 19 0.0 0.0 0.00 0.00 0.00 35 1012.3
20260503024026 20 0.0 0.0 0.00 0.00 0.00 35 1012.3
20260503023021 20 0.0 0.0 0.00 0.00 0.00 34 1012.3
20260503022022 20 0.0 0.0 0.00 0.00 0.00 34 1012.3
20260503021018 20 0.0 0.0 0.00 0.00 0.00 34 1012.3
20260503020027 21 0.0 0.0 0.00 0.00 0.00 36 1012.4
20260503015023 21 0.0 0.0 0.00 0.00 0.00 36 1012.5
20260503014018 21 0.0 0.0 0.00 0.00 0.00 35 1012.6
20260503013025 21 0.0 0.0 0.00 0.00 0.00 36 1012.6
20260503012022 21 0.0 0.0 0.00 0.00 0.00 36 1012.6
20260503011028 21 0.0 0.0 0.00 0.00 0.00 36 1012.7
20260503010028 21 0.0 0.0 0.00 0.00 0.00 35 1012.8
20260503005029 22 0.0 0.0 0.00 0.00 0.00 34 1012.8
20260503004031 22 0.0 0.0 0.00 0.00 0.00 34 1013.1
20260503003031 23 0.0 0.0 0.00 0.00 0.00 34 1013.3
20260503002033 22 0.0 0.0 0.00 0.00 0.00 35 1013.4
20260503001016 22 0.0 0.0 0.00 0.00 0.00 35 1013.8
20260503000015 22 0.0 0.0 0.00 0.00 0.00 35 1014.0
20260502235017 22 0.0 0.0 0.00 0.00 0.00 34 1014.1
20260502234018 22 0.0 0.0 0.00 0.00 0.00 34 1014.2
20260502233026 22 0.0 0.0 0.00 0.00 0.00 35 1014.4
20260502232043 22 0.0 0.0 0.00 0.00 0.00 35 1014.7
20260502231037 22 0.0 0.0 0.00 0.00 0.00 34 1015.0
20260502230030 22 0.0 0.0 0.00 0.00 0.00 34 1015.2
20260502225032 22 0.0 0.0 0.00 0.00 0.00 34 1015.3
20260502224033 22 0.0 0.0 0.00 0.00 0.00 34 1015.5
20260502223028 23 0.0 0.0 0.00 0.00 0.00 34 1015.7
20260502222030 22 0.0 0.0 0.00 0.00 0.00 34 1015.8
20260502221025 22 0.0 0.0 0.00 0.00 0.00 35 1016.0
20260502220033 22 0.0 0.0 0.00 0.00 0.00 34 1016.3
20260502215016 22 0.0 0.0 0.00 0.00 0.00 34 1016.4
20260502214049 22 0.0 0.0 0.00 0.00 0.00 34 1016.6
20260502213049 22 0.0 0.0 0.00 0.00 0.00 34 1016.7
20260502212025 22 0.0 0.0 0.00 0.00 0.00 34 1016.9
20260502211021 22 0.0 0.0 0.00 0.00 0.00 34 1017.1
20260502210113 22 0.0 0.0 0.00 0.00 0.00 35 1017.1
20260502205017 22 0.0 0.0 0.00 0.00 0.00 34 1017.3
20260502204018 21 0.0 0.0 0.00 0.00 0.00 35 1017.7
20260502203031 22 0.0 0.0 0.00 0.00 0.00 35 1017.8
20260502202033 21 0.0 0.0 0.00 0.00 0.00 35 1017.9
20260502201048 21 0.0 0.0 0.00 0.00 0.00 35 1018.1
20260502200017 21 0.0 0.0 0.00 0.00 0.00 35 1018.3
20260502195019 21 0.0 0.0 0.00 0.00 0.00 36 1018.5
20260502194032 20 0.0 0.0 0.00 0.00 0.00 36 1018.7
20260502193026 21 0.0 0.0 0.00 0.00 0.00 36 1018.7
20260502192028 20 0.0 0.0 0.00 0.00 0.00 36 1018.8
20260502191024 20 0.0 0.0 0.00 0.00 0.00 37 1019.0
20260502190018 20 0.0 0.0 0.00 0.00 0.00 38 1019.2
20260502185020 20 0.0 0.0 0.00 0.00 0.00 38 1019.4
20260502184021 20 0.0 0.0 0.00 0.00 0.00 38 1019.6
20260502183017 20 0.0 0.0 0.00 0.00 0.00 38 1019.7
20260502182039 20 0.0 0.0 0.00 0.00 0.00 38 1019.8
20260502181032 19 0.0 0.0 0.00 0.00 0.00 39 1019.9
20260502164031 17 0.0 0.0 0.00 0.00 0.00 47 1021.1
20260502163032 17 0.0 0.0 0.00 0.00 0.00 47 1021.1
20260502162034 16 0.0 0.0 0.00 0.00 0.00 48 1021.1
20260502161016 16 0.0 0.0 0.00 0.00 0.00 48 1021.2
20260502152028 17 0.0 0.0 0.00 0.00 0.00 51 1021.7
20260502151049 15 0.0 0.0 0.00 0.00 0.00 54 1021.7
20260502150105 14 0.0 0.0 0.00 0.00 0.00 57 1021.9
20260502123016 5 0.0 0.0 0.00 0.00 0.00 81 1021.8
20260502122043 5 0.0 0.0 0.00 0.00 0.00 82 1021.7
20260502121023 4 0.0 0.0 0.00 0.00 0.00 83 1021.7
20260502115026 4 0.0 0.0 0.00 0.00 0.00 83 1021.5
20260502114022 5 0.0 0.0 0.00 0.00 0.00 82 1021.6
20260502113024 5 0.0 0.0 0.00 0.00 0.00 82 1021.7
20260502112026 5 0.0 0.0 0.00 0.00 0.00 81 1021.7
20260502111019 5 0.0 0.0 0.00 0.00 0.00 81 1021.5
20260502110020 5 0.0 0.0 0.00 0.00 0.00 81 1021.5
20260502105027 5 0.0 0.0 0.00 0.00 0.00 81 1021.5
20260502104022 6 0.0 0.0 0.00 0.00 0.00 81 1021.5
20260502103018 6 0.0 0.0 0.00 0.00 0.00 81 1021.5
20260502102020 6 0.0 0.0 0.00 0.00 0.00 81 1021.4
20260502101015 5 0.0 0.0 0.00 0.00 0.00 82 1021.3
20260502091027 5 0.0 0.0 0.00 0.00 0.00 84 1021.2
20260502071032 7 0.0 0.0 0.00 0.00 0.00 75 1020.9
20260502070032 8 0.0 0.0 0.00 0.00 0.00 74 1020.8
20260502065036 8 0.0 0.0 0.00 0.00 0.00 73 1020.8
20260502064016 8 0.0 0.0 0.00 0.00 0.00 73 1020.7
20260502063024 8 0.0 0.0 0.00 0.00 0.00 72 1020.6
20260502062020 9 0.0 0.0 0.00 0.00 0.00 72 1020.6
20260502061021 9 0.0 0.0 0.00 0.00 0.00 72 1020.7
20260502060019 9 0.0 0.0 0.00 0.00 0.00 72 1020.6
20260502055038 10 0.0 0.0 0.00 0.00 0.00 71 1020.5
20260502054020 10 0.0 0.0 0.00 0.00 0.00 69 1020.5
20260502053020 11 0.0 0.0 0.00 0.00 0.00 68 1020.4
20260502052022 11 0.0 0.0 0.00 0.00 0.00 67 1020.3
20260502051022 11 0.0 0.0 0.00 0.00 0.00 66 1020.3
20260502050024 11 0.0 0.0 0.00 0.00 0.00 65 1020.3
20260502045025 12 0.0 0.0 0.00 0.00 0.00 64 1020.1
20260502044025 12 0.0 0.0 0.00 0.00 0.00 64 1020.1
20260502043026 12 0.0 0.0 0.00 0.00 0.00 63 1020.0
20260502042022 12 0.0 0.0 0.00 0.00 0.00 62 1019.9
20260502041017 12 0.0 0.0 0.00 0.00 0.00 61 1019.9
20260502040119 12 0.0 0.0 0.00 0.00 0.00 60 1019.8
20260502035053 13 0.0 0.0 0.00 0.00 0.00 59 1019.8